Volver al catálogo

GOES 9

ActivoMeteoGEO
NORAD 23581·PAYLOAD·🇺🇸 United States

Lanzado May 23, 1995 desde Cape Canaveral Space Force Station

Loading…

TLE

ActualizadoSource: Space-Track

Época: Sep 14, 2026, 03:24 UTC

1 23581U 95025A   26257.14204370 -.00000250  00000-0  00000-0 0  9991
2 23581  14.0413  13.8840 0007060 183.4354 179.7468  0.98801930113644

Sigue GOES 9 en tiempo real con AllMySat

Download on the App Store